GFSMW_sfc_thetae_117.txt.gz
Theta_e
307 308 309 311 313 322 324 327 328 329 329 326 324 323 322 322 324 326 327 329 328 328 328 328 323 322 319 322 324 322 320 320 322 319 318 319 321 322 322 324 323 323 323
305 308 311 311 316 322 326 327 328 326 329 328 327 327 325 325 325 328 328 328 328 326 327 326 322 321 319 319 320 321 319 320 321 318 317 312 315 319 320 321 322 323 323
308 310 312 314 316 320 324 326 327 325 329 330 328 328 326 325 325 326 326 326 325 326 324 323 322 319 317 316 320 321 320 316 319 322 318 312 312 314 318 319 321 322 321
310 310 311 312 317 319 325 326 326 325 326 328 327 325 323 320 323 325 325 325 324 322 322 322 319 317 317 316 320 319 319 318 317 319 318 321 318 313 309 315 319 321 320
309 309 310 312 317 321 324 326 326 324 323 325 326 326 322 323 328 327 324 326 325 322 321 320 318 315 315 318 318 320 321 322 320 318 316 316 316 317 314 311 313 317 319
310 310 312 313 315 322 322 323 323 321 321 323 324 324 322 322 324 325 323 325 325 323 322 319 317 315 315 316 317 318 320 321 322 322 319 316 314 313 313 312 314 315 316
307 308 309 311 313 318 318 320 321 319 320 321 322 323 323 326 325 324 325 322 324 325 322 321 318 317 317 316 317 318 319 320 320 321 319 319 318 317 317 315 311 311 315
306 307 309 311 312 314 319 318 318 318 319 321 322 325 326 325 325 325 326 325 324 324 325 323 323 319 318 315 317 319 319 320 321 321 320 319 317 318 317 314 313 310 313
306 308 310 311 314 314 316 317 318 319 319 320 322 323 323 321 321 321 323 325 325 326 325 324 323 323 318 319 319 320 319 321 320 319 319 318 318 319 318 317 315 312 307
306 308 311 313 314 318 317 320 318 318 319 321 323 324 324 323 322 322 322 322 323 324 324 325 324 322 320 319 318 318 320 318 318 317 317 317 318 318 316 315 315 313 311
306 307 309 312 312 316 320 318 318 318 318 321 323 323 321 321 321 321 322 324 324 325 324 324 324 322 320 319 318 318 317 315 315 315 314 315 316 315 314 315 314 313 312
307 307 309 310 310 308 316 317 317 317 318 321 322 322 321 320 319 320 321 323 322 323 323 322 322 322 322 320 318 316 316 315 314 315 315 315 315 315 315 314 314 314 315
305 305 306 306 308 308 308 316 316 317 317 319 321 320 320 319 319 320 320 321 321 320 320 320 320 320 322 320 319 317 316 316 315 315 315 315 315 314 314 314 314 313 308
305 305 306 306 307 308 307 310 316 317 317 318 319 319 319 318 318 319 318 320 320 317 318 318 318 319 319 319 319 318 317 316 316 315 314 313 314 313 310 306 303 300 299
304 305 306 307 307 306 305 306 314 316 316 316 318 319 319 319 318 317 318 318 318 318 318 317 316 317 317 317 317 313 303 298 294 293 293 293 293 292 293 296 295 295 292
305 306 306 305 302 302 303 303 305 315 316 316 318 319 318 318 317 316 316 316 316 316 315 313 311 308 305 296 296 300 297 293 290 288 287 288 288 286 286 285 285 287 287
303 302 301 301 300 299 300 301 303 308 315 315 317 317 317 316 316 316 316 314 309 306 302 300 300 296 296 294 293 292 292 289 288 286 286 285 285 284 283 282 282 281 281
298 298 297 298 299 299 299 300 302 306 314 314 315 316 316 315 315 315 306 301 300 298 295 292 292 291 291 291 290 289 288 286 286 285 285 284 283 282 281 279 278 277 278
296 295 296 297 296 297 296 298 302 308 313 313 314 314 316 313 310 303 298 295 293 291 289 289 288 287 287 288 288 287 285 284 283 284 284 283 282 282 282 278 276 276 276
294 294 295 295 294 293 294 297 297 301 312 313 314 315 315 309 303 297 293 292 289 287 286 286 286 286 286 287 287 286 285 282 281 281 282 282 281 281 280 278 276 273 273
293 293 293 290 290 290 292 292 292 290 293 301 310 309 308 302 297 293 291 288 287 286 285 284 284 285 286 286 286 285 283 281 279 279 279 280 280 279 279 278 276 274 274
291 291 289 288 288 288 289 288 288 290 291 292 295 294 294 293 292 289 288 287 286 284 283 283 282 283 284 284 284 283 281 281 278 277 277 278 278 278 277 276 276 275 274
289 289 287 286 286 286 286 284 286 287 287 288 287 288 288 288 288 287 286 285 285 284 282 282 281 280 281 281 282 281 280 279 277 277 278 278 277 276 274 274 273 272 272
287 287 286 284 283 284 284 284 284 284 284 283 284 285 285 285 285 285 285 284 283 282 281 280 278 278 278 278 279 278 278 278 276 274 273 272 272 271 271 271 271 271 272
284 285 284 282 282 282 282 283 283 283 283 282 282 282 282 281 281 281 281 281 282 282 279 279 279 277 276 276 277 275 273 273 273 272 272 270 270 270 270 269 270 270 270
281 282 282 281 280 280 280 281 282 282 281 280 280 280 280 281 281 280 280 283 282 282 281 281 279 278 279 279 278 278 277 276 275 273 271 270 270 269 268 268 268 268 268

GFSMW_sfc_thetae_120.txt.gz
Theta_e
310 312 317 321 323 325 325 327 327 331 335 335 334 330 328 327 329 332 333 331 334 332 330 329 328 326 324 323 325 324 328 326 328 325 323 323 327 327 324 325 325 324 325
308 314 318 320 323 326 327 328 330 333 334 333 332 332 330 330 330 329 331 330 331 333 330 329 327 325 323 322 323 324 325 326 328 322 321 314 318 323 324 324 324 325 325
311 314 317 319 322 324 328 328 330 332 333 334 331 333 331 331 326 327 327 329 333 334 331 329 326 324 323 320 321 323 322 323 326 327 321 315 313 318 323 324 324 325 324
313 314 316 318 320 325 329 330 330 331 329 331 330 331 329 328 330 330 330 332 333 332 329 327 326 323 323 321 320 322 324 328 323 326 323 324 322 316 314 321 323 325 324
313 312 314 317 319 324 329 330 330 328 328 330 333 333 332 331 332 328 329 330 327 328 329 326 322 323 322 322 321 322 328 328 325 325 322 323 324 323 318 314 318 323 324
311 312 314 317 318 322 325 326 326 326 327 328 332 333 333 330 330 328 329 330 324 323 324 321 320 319 320 320 320 321 326 327 328 325 325 322 320 319 319 317 318 318 322
310 312 313 315 317 320 321 323 322 323 323 325 329 330 330 330 328 329 328 328 324 321 320 320 318 317 318 318 320 320 326 327 327 327 326 324 322 321 320 319 318 317 319
310 311 313 316 318 321 324 324 323 321 323 323 325 328 329 328 327 329 328 327 326 324 323 320 319 316 316 317 318 320 324 327 328 328 327 324 323 323 321 319 318 315 314
309 310 312 315 317 318 321 325 323 323 322 321 323 325 327 330 329 330 330 331 328 326 326 324 321 319 316 315 317 320 321 323 328 328 329 325 324 325 324 322 321 316 310
307 309 311 313 315 316 317 317 325 322 322 321 323 327 328 330 330 329 330 330 327 327 325 323 322 321 320 317 317 318 320 322 323 326 327 326 324 324 324 323 322 321 316
305 308 311 312 313 316 316 315 318 320 320 321 321 326 327 328 329 325 326 326 325 324 324 324 323 322 321 321 319 317 318 321 322 324 325 323 322 321 321 320 319 318 317
306 308 310 312 312 314 315 314 310 319 320 321 322 324 327 327 327 325 326 326 324 328 327 325 324 322 319 319 319 317 320 322 321 321 320 319 319 319 318 318 318 315 316
304 307 309 311 311 312 313 313 309 309 319 320 321 322 325 324 324 324 325 324 323 323 323 324 323 322 322 320 319 319 317 317 317 317 317 318 315 314 315 314 314 314 313
302 306 309 311 312 311 311 311 306 307 317 319 320 321 323 322 323 325 323 322 322 322 321 322 322 321 320 321 320 319 317 316 315 315 315 314 314 314 314 313 313 311 306
300 306 309 311 311 309 309 307 304 306 311 317 318 320 322 324 324 325 322 322 322 321 320 321 320 317 318 318 319 318 316 313 305 298 296 295 297 295 299 304 300 300 295
305 308 308 308 307 306 304 302 303 304 305 316 317 320 321 322 323 323 321 320 319 319 318 318 313 308 302 294 297 301 298 294 291 289 288 288 288 287 286 286 286 289 290
305 305 305 305 305 305 302 299 301 303 304 311 317 319 321 321 322 321 320 318 314 310 304 302 300 296 295 292 293 292 292 290 289 287 286 285 285 284 282 282 282 281 282
302 303 303 302 303 303 303 299 299 301 304 307 316 318 319 319 321 319 316 308 305 301 297 294 293 292 291 290 289 288 287 286 286 285 284 283 282 282 280 279 277 277 277
301 301 301 300 300 299 297 297 299 299 300 306 315 317 318 317 318 311 306 300 296 294 292 291 290 289 289 288 288 287 285 284 283 283 283 282 281 283 283 279 277 276 277
298 297 297 297 295 293 293 295 294 293 293 295 307 316 316 315 308 301 297 295 292 289 289 288 288 288 288 288 288 287 285 283 281 281 281 282 281 280 280 277 276 274 274
294 294 294 292 290 290 290 290 290 289 291 293 295 313 313 307 300 295 293 290 288 287 286 286 286 287 287 287 287 286 284 282 281 280 279 280 280 280 279 278 276 275 275
291 291 290 289 288 287 287 287 285 287 289 291 291 300 301 297 294 291 290 288 287 285 284 283 283 284 284 285 285 284 283 283 280 279 279 279 279 278 278 277 277 276 276
289 289 288 287 286 285 285 284 285 286 288 288 288 287 291 292 291 289 287 286 286 285 283 282 280 280 282 282 282 282 281 280 278 278 278 278 278 277 276 276 276 275 276
287 288 287 286 283 283 283 283 284 285 285 285 285 286 285 285 286 286 287 286 285 283 282 281 280 279 279 280 280 279 279 279 277 276 275 274 274 274 274 275 275 276 277
285 286 285 285 283 281 281 282 283 285 283 284 284 284 284 283 282 284 283 283 283 283 280 279 279 277 276 278 279 277 274 273 273 273 273 274 274 274 274 274 275 276 275
283 283 283 283 283 280 279 281 282 283 282 282 282 282 283 282 281 280 280 283 282 282 282 281 279 278 279 279 278 277 277 276 277 276 276 275 276 275 274 273 272 273 272

GFSMW_sfc_thetae_123.txt.gz
Theta_e
310 313 314 318 321 324 326 326 327 331 328 330 335 340 340 337 334 337 344 342 340 341 336 335 332 330 327 326 326 324 323 326 328 325 321 324 326 327 325 324 323 324 324
310 311 315 319 322 324 326 330 329 330 330 330 335 339 339 330 330 334 338 339 339 336 336 334 329 330 327 324 324 323 321 322 328 323 318 314 318 322 324 324 324 327 322
309 312 315 318 321 323 328 330 329 331 333 334 336 334 332 330 328 330 331 336 335 336 336 333 329 327 327 323 323 323 321 319 324 326 321 314 313 317 321 324 324 326 323
312 313 313 316 319 323 329 332 332 332 333 336 335 331 327 326 327 329 330 334 334 334 334 334 330 326 326 324 323 324 323 321 320 325 326 326 322 316 313 320 322 324 323
312 312 313 315 318 323 325 329 332 332 333 333 334 330 329 332 333 334 331 331 333 334 335 334 331 326 325 324 324 323 322 323 323 324 323 324 325 324 318 314 317 320 323
311 312 314 316 318 324 326 326 328 328 328 330 331 330 330 332 332 331 330 331 333 333 333 332 329 328 324 323 323 324 322 322 324 325 326 324 321 319 321 318 319 318 322
311 311 312 315 317 320 323 326 325 325 327 328 330 330 332 331 333 329 329 330 327 326 327 327 324 324 323 322 322 322 321 321 322 322 325 326 324 326 324 321 319 318 320
311 311 312 314 316 318 320 323 325 324 324 327 327 328 331 331 332 331 331 331 328 326 326 323 322 321 320 321 322 322 322 322 322 322 326 327 325 326 324 322 319 316 318
309 309 311 313 315 315 317 320 324 325 324 324 327 325 327 331 332 331 330 332 331 329 325 323 320 319 318 319 320 320 321 322 323 323 326 324 325 326 325 325 324 320 313
304 307 310 312 313 315 317 319 321 324 325 325 325 324 325 329 330 331 331 332 332 329 325 324 320 317 317 317 318 319 320 321 322 323 324 325 326 325 326 326 325 324 318
300 305 308 311 313 315 317 317 318 319 323 324 324 324 324 327 329 329 330 331 331 330 328 323 321 317 315 316 317 317 319 319 320 323 324 324 325 325 327 328 327 323 321
300 303 308 310 312 314 315 315 315 316 317 322 322 323 323 326 325 327 329 331 329 330 327 324 322 319 317 316 316 315 317 317 319 321 322 323 323 324 325 324 320 320 321
301 301 306 308 311 313 314 313 314 315 316 318 321 322 322 324 325 325 328 326 326 327 327 326 325 322 319 317 317 317 317 316 318 319 322 323 323 323 321 319 318 319 314
300 301 303 308 311 314 313 312 312 314 313 311 319 320 322 323 324 326 325 324 326 326 326 326 327 326 322 320 319 318 318 317 317 317 318 320 321 320 318 315 314 312 310
300 303 306 310 312 312 312 311 309 311 311 308 310 319 322 323 322 323 323 324 324 324 324 323 322 322 322 322 320 319 318 317 317 312 310 310 309 300 301 311 311 310 299
300 305 308 309 309 309 309 309 308 305 308 306 306 316 321 321 322 322 322 322 323 322 321 320 316 310 305 295 299 309 311 306 296 291 290 292 291 289 288 287 286 293 295
305 306 306 306 307 307 306 305 305 305 304 305 307 309 319 320 323 322 321 321 320 316 308 304 303 299 296 292 293 293 293 291 289 288 287 286 286 286 284 283 282 282 283
304 304 305 305 305 305 302 301 302 303 302 301 303 307 318 320 322 320 318 315 311 303 298 295 295 293 291 290 290 289 288 286 285 285 285 285 284 284 282 280 277 277 277
302 302 303 302 302 299 298 298 298 299 299 296 298 299 316 320 321 316 308 303 299 296 293 292 291 290 289 289 288 288 286 284 283 284 284 284 282 283 284 279 277 276 277
298 297 299 298 296 294 294 294 294 293 293 291 293 295 298 318 315 305 300 298 294 291 290 289 289 289 288 288 288 288 285 282 281 281 281 282 281 281 281 278 276 274 275
294 295 296 293 291 291 290 290 291 289 288 290 292 294 297 311 306 299 295 292 289 288 287 286 287 287 288 287 288 287 285 282 280 279 279 280 281 280 280 279 276 275 276
292 294 293 292 291 288 286 286 287 287 288 290 290 290 297 302 298 294 291 289 288 286 285 284 283 284 285 286 286 285 284 283 280 279 279 279 279 279 279 278 278 277 277
291 292 292 291 291 288 284 283 284 286 286 287 287 287 288 293 294 291 288 287 287 285 283 282 281 281 283 283 284 283 282 281 279 279 279 280 279 279 278 278 278 277 276
289 290 289 288 288 287 284 282 284 285 285 284 285 285 285 285 287 288 288 287 285 284 282 281 279 279 279 279 280 280 280 280 279 277 276 275 276 276 276 277 279 280 280
287 287 286 285 285 285 283 281 283 284 284 283 284 285 284 283 282 282 283 283 284 284 282 280 280 278 277 278 280 278 276 275 274 274 274 274 274 274 275 276 277 278 278
283 282 282 282 282 283 282 280 281 283 283 282 282 283 283 282 281 280 280 283 282 282 282 281 280 279 280 279 279 278 277 278 278 276 276 275 276 277 276 276 276 276 275

GFSMW_sfc_thetae_129.txt.gz
Theta_e
307 308 308 307 309 312 314 316 317 316 320 327 334 333 334 333 334 336 336 340 340 339 335 333 333 330 328 327 326 325 324 323 324 322 320 321 319 318 321 320 320 319 320
305 305 305 310 312 314 319 320 321 321 321 316 323 331 336 335 336 336 334 335 338 338 336 334 333 332 328 327 325 324 323 321 324 320 318 313 316 316 318 319 319 318 320
302 307 311 311 311 317 320 321 322 324 324 322 316 323 327 329 330 334 333 334 335 337 337 334 333 331 330 327 326 325 323 320 322 322 316 310 309 313 316 316 318 318 317
306 310 308 311 313 315 319 321 322 322 325 326 320 324 323 322 326 331 334 334 334 335 336 334 332 331 329 327 326 326 323 323 319 322 322 317 316 311 310 314 315 318 317
307 306 307 313 315 316 316 318 321 322 323 325 325 324 323 323 324 325 328 331 331 334 334 333 330 330 329 328 327 325 324 322 321 321 320 317 316 315 312 308 312 317 316
305 308 308 314 315 316 316 316 316 319 321 323 323 322 324 323 324 324 326 327 329 330 332 331 329 328 327 326 326 325 324 323 321 322 322 318 314 313 312 310 310 311 314
304 305 307 309 311 313 313 315 314 316 321 322 323 323 325 326 325 325 325 325 326 327 328 329 329 327 326 326 326 325 324 323 321 321 321 321 319 318 316 313 310 310 310
304 305 306 308 309 311 312 314 314 314 318 322 321 323 324 326 328 327 326 327 326 327 329 328 329 328 326 326 325 325 324 325 323 321 322 321 320 319 318 315 311 309 309
304 304 305 307 307 310 312 312 312 313 313 316 321 321 323 326 327 329 327 329 329 327 327 327 327 327 326 325 325 323 323 323 323 321 322 321 321 321 320 318 315 312 306
303 303 304 306 307 310 311 312 311 311 311 312 314 317 321 324 326 327 327 327 327 326 324 321 322 321 322 323 323 322 323 322 322 321 321 321 321 320 320 319 317 315 313
299 298 301 305 308 310 310 310 310 310 309 309 311 312 316 322 323 325 326 327 327 326 324 322 319 319 319 319 320 320 320 320 320 321 321 320 321 320 318 320 319 316 315
297 297 296 302 304 307 309 308 308 309 308 308 308 309 312 317 322 323 325 327 327 326 323 321 318 319 318 318 318 318 319 319 318 319 320 320 320 319 320 318 318 317 314
296 296 298 306 308 308 309 308 307 307 307 306 305 307 308 312 318 322 324 326 326 325 324 321 318 318 317 317 317 318 318 319 319 319 319 319 319 317 319 316 316 316 312
294 295 305 305 305 306 307 306 306 305 305 304 304 304 306 308 310 318 322 324 325 325 323 322 320 319 317 317 316 317 317 318 318 318 319 319 319 319 318 315 313 312 307
298 302 303 303 303 303 303 303 302 301 302 302 302 303 305 306 307 311 321 324 324 324 324 323 322 319 318 317 316 316 316 316 316 316 318 318 315 309 312 315 312 308 301
300 301 301 301 301 299 299 298 297 298 299 300 300 302 303 302 302 308 315 322 323 321 320 321 321 320 316 302 301 309 314 314 313 312 310 313 307 305 300 300 301 305 301
295 295 296 297 296 295 294 293 294 296 297 298 297 298 298 297 298 300 303 320 320 318 313 310 308 303 301 294 297 298 308 308 307 308 297 291 294 294 291 289 288 288 290
294 293 294 294 293 292 291 291 292 293 294 295 293 292 292 293 295 297 301 312 313 310 304 299 297 294 291 291 292 290 290 288 287 287 288 289 287 289 288 289 285 284 285
293 293 293 293 291 290 289 289 289 290 291 290 288 290 290 291 293 294 297 302 303 302 296 294 291 290 288 289 289 289 287 285 285 285 286 285 286 288 291 286 284 283 282
292 292 293 292 289 287 287 286 285 286 286 286 286 288 289 291 291 292 295 301 300 294 291 289 289 288 288 289 289 288 286 283 282 283 285 286 285 285 287 285 283 279 279
289 289 289 288 287 286 285 283 283 282 284 284 286 287 289 290 291 292 294 295 293 290 288 287 287 287 287 288 288 287 285 283 282 281 281 283 284 285 285 285 283 279 278
285 285 284 284 285 284 283 281 280 281 282 283 285 286 288 289 290 292 295 292 290 288 286 285 284 285 285 287 286 286 284 284 280 279 280 281 282 282 281 280 280 279 277
283 283 282 282 282 282 282 279 280 281 281 283 284 285 286 286 287 289 289 288 288 287 285 284 282 282 283 284 285 284 282 281 279 280 281 282 281 280 279 279 279 278 277
281 281 280 279 279 280 280 279 280 280 280 281 283 283 283 283 282 284 286 286 285 285 285 283 281 280 280 280 280 281 281 282 281 280 278 278 278 278 278 278 278 277 277
280 280 279 278 278 279 279 279 279 279 279 280 282 281 281 281 281 281 282 284 284 285 284 284 281 279 278 279 281 280 279 277 277 277 278 277 277 276 276 276 276 277 276
279 279 278 277 277 278 279 279 279 279 278 279 280 280 280 279 280 279 280 283 283 283 283 283 282 281 282 282 281 280 280 280 280 277 275 275 275 275 275 275 275 275 275

GFSMW_sfc_thetae_132.txt.gz
Theta_e
300 304 308 308 309 309 311 313 323 331 332 331 332 330 331 331 332 332 337 336 340 339 336 333 331 331 329 328 326 323 321 321 323 322 322 321 321 319 319 320 319 319 320
300 302 304 307 310 312 317 319 318 317 320 323 330 331 332 331 334 334 332 335 337 337 334 332 330 330 329 327 326 324 322 320 324 319 319 314 316 317 319 319 319 317 320
298 306 310 310 313 314 318 320 321 322 322 320 316 325 328 329 330 330 331 332 334 336 334 332 331 329 329 326 326 325 323 320 323 322 316 311 310 313 316 317 317 316 317
303 310 310 311 314 314 317 319 320 320 324 323 316 321 325 328 331 333 333 332 331 332 334 333 332 331 329 327 326 326 325 323 319 322 321 315 315 309 308 314 316 316 316
306 306 309 312 311 313 315 316 318 318 319 322 323 322 320 320 322 327 331 332 331 334 334 333 332 331 330 329 327 326 324 324 321 321 320 318 314 316 311 309 310 314 316
304 309 313 313 314 312 312 314 317 319 320 321 320 320 322 323 321 323 328 328 327 332 334 333 333 332 330 328 327 326 325 323 322 322 322 319 315 313 312 311 311 311 313
302 309 311 312 310 310 312 314 315 315 318 318 320 320 321 322 323 322 325 325 325 327 330 332 330 330 329 328 327 326 325 324 322 321 321 322 319 318 316 313 312 311 309
304 310 310 309 311 311 312 313 313 312 314 314 316 318 320 321 323 326 324 326 326 327 330 330 330 329 328 327 326 326 325 325 322 322 322 323 321 320 317 315 312 309 307
303 305 307 310 310 311 310 311 311 310 311 312 312 314 314 319 321 324 325 327 327 327 328 329 329 328 326 326 325 325 324 324 324 323 321 322 323 321 319 318 316 311 307
304 304 305 309 310 311 311 310 310 309 309 309 310 310 311 313 318 323 325 325 327 327 326 327 327 327 326 325 324 324 324 323 324 324 322 321 322 321 319 319 317 315 312
299 299 304 309 310 309 309 309 308 308 307 307 308 308 308 310 313 320 321 324 327 326 325 325 325 324 324 324 323 323 323 322 322 323 321 321 322 321 319 318 316 315 313
299 300 306 307 307 307 306 306 307 306 306 305 305 306 308 308 308 310 317 324 325 326 325 323 322 321 320 320 320 320 320 320 320 320 320 320 321 320 320 318 316 315 314
298 302 305 305 305 306 306 304 303 302 302 303 303 304 305 305 305 306 310 315 323 325 325 323 321 319 318 318 318 318 318 318 319 319 319 319 320 319 319 319 317 317 312
299 302 301 301 300 301 300 300 299 300 300 301 301 300 302 302 303 303 305 311 317 323 324 322 321 319 317 317 317 318 318 317 318 319 319 319 319 318 319 317 317 316 309
296 296 297 297 295 295 295 295 295 296 298 298 297 297 299 300 299 299 301 303 308 320 324 323 321 319 317 316 316 316 316 316 316 316 317 318 316 309 312 318 314 311 306
294 294 294 294 293 292 291 292 292 293 296 295 295 295 294 294 295 296 297 300 305 311 323 322 320 318 316 304 301 310 315 314 314 313 313 313 306 305 301 301 301 306 303
291 291 292 292 291 290 289 288 289 291 291 293 292 291 291 291 292 293 295 297 300 303 315 319 320 317 314 299 299 299 312 311 311 311 305 300 299 302 295 296 296 295 296
290 290 290 290 289 288 287 288 288 287 289 289 288 288 289 289 290 292 293 294 296 300 311 311 308 305 296 294 296 295 296 292 289 289 289 292 288 291 292 288 289 289 289
287 287 288 288 286 285 285 285 285 285 285 284 285 286 287 288 289 290 291 292 294 296 302 301 298 296 290 290 290 292 289 286 285 286 286 286 287 290 293 288 286 285 284
285 284 285 285 284 283 284 283 282 282 281 282 283 285 287 288 288 289 290 292 293 296 293 290 293 291 288 289 290 290 287 285 284 285 285 286 286 287 288 288 287 284 284
283 283 283 282 282 282 282 280 280 279 281 282 282 284 286 287 288 289 290 291 293 291 288 286 287 288 288 288 289 289 287 285 283 283 283 285 286 286 287 288 286 283 281
281 282 280 280 281 281 280 278 278 280 280 281 282 283 285 286 286 285 287 291 290 287 286 285 285 285 286 287 288 287 286 285 282 281 282 283 285 285 284 282 282 282 280
280 281 279 279 279 279 279 277 278 279 280 280 280 282 283 284 284 283 284 287 288 286 285 285 284 283 284 285 286 285 284 282 281 282 283 283 282 282 281 281 280 280 279
279 281 278 277 277 278 279 279 279 279 278 278 279 280 279 280 282 282 282 284 285 285 285 285 283 282 282 281 282 281 282 283 282 281 279 278 278 278 278 278 278 278 278
278 280 277 277 276 277 278 279 278 278 277 277 277 277 277 279 280 280 281 282 284 286 285 285 283 281 280 280 282 281 280 279 278 277 277 277 277 276 275 276 276 276 276
277 277 277 276 276 276 277 279 278 278 277 276 276 276 276 277 277 276 278 282 283 284 284 284 282 281 282 283 283 283 281 280 280 278 276 275 275 275 275 274 274 275 275

GFSMW_sfc_thetae_135.txt.gz
Theta_e
297 298 300 303 306 307 308 327 333 337 337 336 335 334 333 333 333 336 337 337 337 337 336 335 332 331 330 329 328 325 323 319 324 320 319 320 319 319 320 320 320 318 320
296 298 303 303 308 307 313 327 335 336 338 337 333 329 331 332 334 332 334 336 337 337 337 335 333 331 329 329 327 325 322 320 323 319 317 311 314 318 319 319 320 317 319
295 297 306 308 312 314 316 319 322 326 326 325 326 327 328 329 329 328 330 332 335 335 337 335 333 331 330 327 327 326 324 320 322 321 318 312 310 314 316 317 318 318 318
295 298 306 311 314 315 315 317 321 323 323 320 318 323 326 325 329 331 332 331 330 332 335 333 332 331 330 327 327 327 325 324 320 321 321 316 315 312 308 316 317 318 317
294 297 307 313 314 315 316 315 317 321 323 323 321 320 319 321 322 327 329 330 329 331 332 332 331 330 330 329 327 326 325 324 322 321 320 317 314 314 311 309 312 315 317
294 300 307 311 311 311 312 315 319 319 320 320 321 320 320 321 321 323 328 329 329 328 331 332 331 331 330 329 327 327 326 325 324 323 321 319 315 312 309 309 312 312 314
298 299 308 311 308 308 313 315 316 315 317 318 318 317 318 319 320 321 325 326 324 325 327 330 329 330 330 330 328 327 326 325 323 322 321 321 320 318 316 314 312 311 311
299 299 310 310 308 309 311 312 312 312 313 313 312 313 314 316 319 321 323 324 324 324 326 327 329 331 330 329 328 327 326 325 324 322 321 321 321 321 318 315 312 310 309
298 303 308 308 308 308 310 310 308 309 310 309 309 309 310 312 314 317 320 323 324 325 325 329 329 329 329 328 327 326 325 325 324 323 322 321 322 321 319 319 316 313 307
299 303 306 308 309 309 309 308 308 307 307 306 307 307 308 309 311 315 318 320 323 323 324 326 327 328 327 327 326 325 325 324 324 323 322 321 323 323 321 319 317 317 313
298 304 307 308 308 307 306 305 305 304 303 303 305 305 306 308 309 309 310 314 320 322 323 325 325 326 326 325 324 324 324 323 323 323 323 321 322 322 321 319 318 316 315
299 303 305 305 303 302 301 300 300 300 300 302 303 304 305 305 305 305 305 307 311 318 323 325 325 325 325 324 324 323 323 322 321 322 322 321 322 321 321 319 317 316 316
299 299 299 298 297 296 297 296 296 297 298 300 299 299 300 301 301 300 302 303 306 310 318 323 322 322 323 323 323 323 322 321 322 321 320 320 319 319 319 319 317 317 315
295 296 295 295 295 294 293 293 293 295 297 297 296 296 296 296 296 298 298 299 301 304 310 318 323 322 321 321 320 321 320 319 319 319 319 319 319 319 319 318 316 315 311
292 292 293 293 291 291 290 290 291 292 293 294 294 293 293 294 294 295 295 297 298 301 306 310 322 321 320 319 318 318 317 317 316 316 317 318 315 309 313 318 317 315 308
290 290 291 290 289 288 288 288 288 288 290 291 290 290 290 291 292 292 293 295 296 297 299 304 310 320 318 305 302 311 315 315 314 314 314 315 306 306 301 301 301 309 306
287 287 287 287 287 286 286 285 286 287 287 287 287 287 288 288 289 291 292 293 294 294 296 299 304 317 318 301 301 301 314 313 313 312 309 305 304 304 305 297 297 297 297
284 285 285 285 285 284 284 285 285 284 284 284 283 284 285 286 288 290 290 291 292 293 294 296 302 310 312 298 298 298 308 306 300 297 296 300 293 291 295 291 290 291 298
283 283 283 284 283 282 282 283 282 282 282 281 281 282 284 285 287 287 288 290 291 292 294 296 296 298 302 293 295 298 295 290 287 286 286 287 287 290 293 290 288 286 285
282 281 281 281 280 280 280 280 279 279 279 280 280 282 284 285 285 286 288 288 289 291 293 292 291 290 292 291 292 296 292 287 286 285 285 287 287 289 289 290 288 286 284
281 281 280 279 279 279 279 278 278 278 279 280 281 281 283 283 285 285 285 285 287 291 290 287 287 288 288 289 291 292 293 289 285 284 284 285 287 288 289 288 287 287 286
279 280 278 278 278 278 277 277 277 279 279 279 280 280 282 282 283 283 283 284 285 288 287 285 285 285 285 287 288 289 288 288 285 283 284 285 286 286 285 284 284 284 284
277 278 278 277 277 277 277 276 278 278 278 278 278 278 280 280 281 281 281 281 283 286 286 284 284 284 284 285 286 286 285 284 282 283 285 285 284 284 283 283 283 283 282
277 277 277 276 276 277 277 277 278 278 278 277 276 277 277 278 278 278 280 281 281 282 285 285 284 283 282 282 282 283 283 284 283 282 280 279 279 279 279 279 279 280 280
276 276 276 276 275 276 276 277 278 278 276 276 277 276 277 275 275 276 276 279 281 282 282 285 284 282 280 281 282 282 282 281 279 278 278 278 277 276 276 276 277 277 277
276 275 275 275 275 275 276 277 278 277 276 276 276 274 273 273 273 272 273 278 281 283 284 285 284 282 283 284 284 284 282 281 280 279 277 276 276 275 275 275 275 275 275

GFSMW_sfc_thetae_138.txt.gz
Theta_e
295 297 297 297 300 303 302 304 325 336 336 335 333 333 332 332 333 333 334 334 335 336 335 334 332 331 329 329 328 327 324 322 324 320 319 320 319 321 321 322 321 320 320
294 296 296 299 304 306 307 304 316 334 336 337 337 336 335 334 334 335 335 336 336 336 335 334 332 331 330 330 328 325 323 322 324 319 317 312 315 318 320 321 320 318 320
293 296 297 299 307 309 312 312 316 329 337 337 335 329 330 329 328 330 333 335 336 336 336 335 334 332 332 329 328 325 324 321 322 322 316 311 309 312 317 318 319 318 318
300 300 297 298 309 312 314 317 325 333 333 334 333 331 328 326 327 331 332 331 334 335 336 336 334 332 331 329 328 327 326 324 320 322 321 318 315 309 309 316 317 319 318
298 299 300 297 311 312 312 317 321 321 321 323 327 323 323 324 324 328 328 329 329 332 335 333 334 332 330 330 328 326 326 325 323 321 319 316 315 314 310 309 313 317 319
298 299 301 305 308 309 311 313 319 318 320 321 321 321 321 320 320 322 325 329 328 328 331 331 332 332 330 329 328 327 326 325 325 323 322 320 314 312 312 309 312 312 316
298 300 301 306 308 308 313 316 316 317 317 317 317 318 318 318 319 319 321 323 325 325 325 328 329 329 329 329 329 327 326 325 324 323 322 322 321 317 316 315 312 312 312
297 299 304 305 307 308 309 310 310 310 310 310 310 311 312 315 317 318 318 321 323 323 323 326 328 329 329 329 328 327 326 326 325 324 324 323 322 321 318 315 312 310 310
298 300 306 306 306 306 306 306 306 305 304 306 307 307 309 309 310 314 317 319 321 322 321 322 325 327 328 329 328 327 326 326 325 324 323 323 323 322 319 318 317 314 307
298 300 306 306 304 303 302 302 302 301 303 304 304 305 305 306 307 308 309 313 318 320 320 321 323 325 327 328 327 326 326 325 325 324 323 322 323 322 321 319 318 317 315
296 294 294 297 300 299 298 298 298 299 300 300 301 301 302 303 304 304 304 305 309 312 317 320 322 325 325 326 326 326 326 324 324 324 322 322 323 321 321 320 319 316 316
293 293 292 289 293 294 294 294 295 296 298 298 298 298 298 299 299 300 301 303 303 306 310 315 321 324 325 325 324 324 324 324 322 322 322 321 321 320 322 321 319 317 317
290 290 289 286 287 290 290 291 291 291 293 295 296 295 294 294 294 296 297 299 300 301 303 310 314 321 323 323 324 324 323 323 323 323 322 322 320 320 320 320 319 318 317
290 289 287 286 285 287 287 288 289 289 290 292 293 291 291 292 292 293 294 295 297 299 301 303 309 312 321 322 323 322 323 322 322 322 322 322 321 320 320 319 318 317 315
287 287 288 287 287 287 286 287 287 287 288 289 289 288 289 290 291 291 292 293 296 297 298 299 303 307 312 321 321 321 321 320 319 319 320 320 317 309 312 317 317 317 315
285 285 285 285 285 284 284 284 285 285 286 286 285 286 286 287 288 289 290 292 294 295 296 296 298 300 306 304 302 311 319 318 317 315 315 316 306 306 300 300 301 310 306
283 282 282 283 283 283 282 281 283 284 284 284 283 283 284 284 286 288 289 290 291 293 293 295 297 298 302 298 300 299 317 316 316 314 312 308 307 305 309 298 296 297 297
281 281 281 281 282 282 281 281 282 282 282 281 281 282 282 283 286 286 287 288 289 290 291 293 295 297 298 295 295 297 310 313 311 308 304 306 296 298 301 297 293 291 298
281 281 281 280 281 280 280 280 281 280 280 280 280 281 282 282 284 284 285 286 286 287 289 292 294 294 294 292 291 292 305 299 293 290 290 293 293 294 296 293 291 288 287
280 280 280 279 279 278 278 278 278 279 278 279 279 281 282 282 282 283 284 284 285 286 288 290 291 290 290 290 291 292 300 294 291 288 287 289 289 289 290 293 291 289 287
279 279 279 277 277 278 277 277 277 277 278 279 280 280 280 281 282 282 282 283 283 284 286 288 289 288 287 288 290 291 291 291 289 288 286 286 287 288 289 290 289 289 286
277 277 278 277 277 277 277 276 276 278 279 279 279 279 279 280 281 280 280 281 281 282 284 286 287 287 286 286 287 288 288 288 287 287 286 286 288 287 287 286 286 286 285
276 277 277 276 277 277 277 275 277 278 278 277 277 278 278 278 278 278 278 279 280 280 280 282 285 286 285 285 285 286 286 286 284 285 285 286 286 285 284 285 285 285 285
276 276 275 275 275 276 277 276 278 278 277 276 274 275 274 275 275 275 275 276 277 278 279 280 281 285 283 282 283 283 285 285 285 284 283 282 281 281 281 281 282 283 283
276 276 275 275 274 275 275 277 278 277 276 275 273 273 273 271 272 274 273 274 275 279 280 281 282 283 284 282 283 283 282 281 279 279 279 279 278 277 278 278 278 279 279
275 275 274 274 274 274 275 276 277 277 275 273 273 273 272 272 272 272 273 278 279 281 281 283 284 284 284 284 284 284 282 281 281 279 277 277 277 277 276 276 276 277 276